| time (UTC) | temp F | wind direction | speed MPH | gust MPH | rain 1hr in | rain 24hr in | rain mn in | humidity % | barometer mb |
| 20260506232730 | 61 | 357 | 2.0 | 3.0 | 0.00 | 0.00 | 0.00 | 85 | 1014.3 |
| 20260506232224 | 61 | 337 | 6.0 | 7.0 | 0.00 | 0.00 | 0.00 | 85 | 1014.3 |
| 20260506231722 | 61 | 326 | 4.0 | 7.0 | 0.00 | 0.00 | 0.00 | 85 | 1014.2 |
| 20260506231220 | 61 | 332 | 5.0 | 7.0 | 0.00 | 0.00 | 0.00 | 85 | 1014.3 |
| 20260506230717 | 61 | 344 | 3.0 | 4.0 | 0.00 | 0.00 | 0.00 | 85 | 1014.3 |
| 20260506230214 | 61 | 357 | 6.0 | 8.0 | 0.00 | 0.00 | 0.00 | 86 | 1014.1 |
| 20260506225710 | 61 | 345 | 3.0 | 3.0 | 0.00 | 0.00 | 0.00 | 86 | 1014.3 |
| 20260506225207 | 61 | 277 | 4.0 | 4.0 | 0.00 | 0.00 | 0.00 | 86 | 1014.2 |
| 20260506224704 | 61 | 5 | 4.0 | 7.0 | 0.00 | 0.00 | 0.00 | 86 | 1014.0 |
| 20260506224201 | 61 | 342 | 4.0 | 7.0 | 0.00 | 0.00 | 0.00 | 86 | 1014.2 |
| 20260506223657 | 60 | 21 | 3.0 | 4.0 | 0.00 | 0.00 | 0.00 | 86 | 1014.2 |
| 20260506223153 | 61 | 349 | 6.0 | 9.0 | 0.00 | 0.00 | 0.00 | 86 | 1014.2 |
| 20260506222650 | 60 | 332 | 3.0 | 4.0 | 0.00 | 0.00 | 0.00 | 86 | 1014.2 |
| 20260506222145 | 60 | 326 | 4.0 | 4.0 | 0.00 | 0.00 | 0.00 | 87 | 1014.3 |
| 20260506221644 | 60 | 336 | 5.0 | 7.0 | 0.00 | 0.00 | 0.00 | 87 | 1014.3 |
| 20260506221142 | 60 | 326 | 9.0 | 14.0 | 0.00 | 0.00 | 0.00 | 86 | 1014.4 |
| 20260506220638 | 61 | 333 | 10.0 | 11.0 | 0.00 | 0.00 | 0.00 | 85 | 1014.3 |
| 20260506220133 | 61 | 320 | 8.0 | 10.0 | 0.00 | 0.00 | 0.00 | 86 | 1014.1 |
| 20260506215630 | 61 | 346 | 2.0 | 6.0 | 0.00 | 0.00 | 0.00 | 85 | 1014.0 |
| 20260506215125 | 62 | 307 | 2.0 | 2.0 | 0.00 | 0.00 | 0.00 | 85 | 1013.8 |
| 20260506214622 | 62 | 343 | 6.0 | 10.0 | 0.00 | 0.00 | 0.00 | 85 | 1014.0 |
| 20260506214120 | 63 | 334 | 6.0 | 7.0 | 0.00 | 0.00 | 0.00 | 83 | 1014.0 |
| 20260506213618 | 62 | 323 | 5.0 | 8.0 | 0.00 | 0.00 | 0.00 | 84 | 1013.9 |
| 20260506213115 | 62 | 312 | 3.0 | 6.0 | 0.00 | 0.00 | 0.00 | 85 | 1014.0 |
| 20260506212612 | 61 | 344 | 7.0 | 10.0 | 0.00 | 0.00 | 0.00 | 85 | 1014.2 |
| 20260506212107 | 62 | 298 | 4.0 | 6.0 | 0.00 | 0.00 | 0.00 | 84 | 1014.0 |
| 20260506211603 | 62 | 303 | 4.0 | 4.0 | 0.00 | 0.00 | 0.00 | 85 | 1014.3 |
| 20260506211100 | 62 | 273 | 9.0 | 13.0 | 0.00 | 0.00 | 0.00 | 84 | 1014.2 |
| 20260506210556 | 62 | 289 | 0.0 | 1.0 | 0.00 | 0.00 | 0.00 | 84 | 1014.2 |
| 20260506210053 | 62 | 340 | 9.0 | 15.0 | 0.00 | 0.00 | 0.00 | 84 | 1014.2 |
| 20260506205550 | 62 | 331 | 8.0 | 11.0 | 0.00 | 0.00 | 0.00 | 84 | 1014.6 |
| 20260506205045 | 62 | 344 | 8.0 | 9.0 | 0.00 | 0.00 | 0.00 | 84 | 1014.5 |
| 20260506204543 | 62 | 295 | 7.0 | 9.0 | 0.00 | 0.00 | 0.00 | 85 | 1014.7 |
| 20260506204040 | 62 | 305 | 12.0 | 14.0 | 0.00 | 0.00 | 0.00 | 84 | 1014.6 |
| 20260506203539 | 63 | 29 | 8.0 | 10.0 | 0.00 | 0.00 | 0.00 | 84 | 1014.6 |
| 20260506203035 | 63 | 287 | 7.0 | 9.0 | 0.00 | 0.00 | 0.00 | 84 | 1014.3 |
| 20260506202532 | 63 | 315 | 8.0 | 11.0 | 0.00 | 0.00 | 0.00 | 83 | 1014.4 |
| 20260506202028 | 64 | 293 | 8.0 | 9.0 | 0.00 | 0.00 | 0.00 | 82 | 1014.4 |
| 20260506201526 | 64 | 324 | 7.0 | 9.0 | 0.00 | 0.00 | 0.00 | 83 | 1014.0 |
| 20260506201022 | 65 | 325 | 4.0 | 11.0 | 0.00 | 0.00 | 0.00 | 83 | 1014.1 |
| 20260506200519 | 65 | 314 | 14.0 | 17.0 | 0.00 | 0.00 | 0.00 | 82 | 1014.1 |
| 20260506200016 | 65 | 323 | 9.0 | 11.0 | 0.00 | 0.00 | 0.00 | 82 | 1013.9 |
| 20260506195513 | 66 | 335 | 11.0 | 15.0 | 0.00 | 0.00 | 0.00 | 82 | 1013.9 |
| 20260506195009 | 66 | 324 | 10.0 | 13.0 | 0.00 | 0.00 | 0.00 | 83 | 1014.0 |
| 20260506194507 | 67 | 285 | 7.0 | 10.0 | 0.00 | 0.00 | 0.00 | 83 | 1013.9 |
| 20260506194003 | 66 | 335 | 9.0 | 11.0 | 0.00 | 0.00 | 0.00 | 84 | 1013.7 |
| 20260506193501 | 67 | 12 | 10.0 | 16.0 | 0.00 | 0.00 | 0.00 | 82 | 1014.0 |
| 20260506192956 | 67 | 321 | 7.0 | 9.0 | 0.00 | 0.00 | 0.00 | 83 | 1013.7 |
| 20260506192454 | 67 | 316 | 6.0 | 8.0 | 0.00 | 0.00 | 0.00 | 83 | 1013.9 |
| 20260506191950 | 68 | 350 | 4.0 | 6.0 | 0.00 | 0.00 | 0.00 | 82 | 1013.8 |
| 20260506191447 | 68 | 285 | 8.0 | 10.0 | 0.00 | 0.00 | 0.00 | 82 | 1013.9 |
| 20260506190943 | 69 | 324 | 6.0 | 7.0 | 0.00 | 0.00 | 0.00 | 81 | 1013.8 |
| 20260506190440 | 70 | 288 | 7.0 | 9.0 | 0.00 | 0.00 | 0.00 | 80 | 1013.9 |
| 20260506185937 | 70 | 270 | 8.0 | 11.0 | 0.00 | 0.00 | 0.00 | 80 | 1013.9 |
| 20260506185434 | 71 | 346 | 4.0 | 7.0 | 0.00 | 0.00 | 0.00 | 80 | 1013.7 |
| 20260506184931 | 71 | 15 | 4.0 | 7.0 | 0.00 | 0.00 | 0.00 | 79 | 1013.7 |
| 20260506184428 | 71 | 305 | 7.0 | 8.0 | 0.00 | 0.00 | 0.00 | 80 | 1013.7 |
| 20260506183925 | 70 | 350 | 6.0 | 8.0 | 0.00 | 0.00 | 0.00 | 81 | 1013.6 |
| 20260506183420 | 72 | 311 | 6.0 | 8.0 | 0.00 | 0.00 | 0.00 | 78 | 1013.7 |
| 20260506182918 | 71 | 356 | 2.0 | 3.0 | 0.00 | 0.00 | 0.00 | 79 | 1013.7 |
| 20260506182415 | 70 | 39 | 6.0 | 8.0 | 0.00 | 0.00 | 0.00 | 80 | 1013.7 |
| 20260506181912 | 70 | 332 | 5.0 | 7.0 | 0.00 | 0.00 | 0.00 | 80 | 1013.5 |
| 20260506181410 | 70 | 356 | 4.0 | 4.0 | 0.00 | 0.00 | 0.00 | 80 | 1014.1 |
| 20260506180907 | 70 | 329 | 3.0 | 4.0 | 0.00 | 0.00 | 0.00 | 80 | 1013.7 |
| 20260506180403 | 71 | 338 | 0.0 | 1.0 | 0.00 | 0.00 | 0.00 | 81 | 1013.5 |
| 20260506175900 | 69 | 29 | 4.0 | 4.0 | 0.00 | 0.00 | 0.00 | 81 | 1013.5 |
| 20260506175356 | 68 | 311 | 7.0 | 8.0 | 0.00 | 0.00 | 0.00 | 83 | 1013.2 |
| 20260506174853 | 68 | 65 | 5.0 | 7.0 | 0.00 | 0.00 | 0.00 | 84 | 1013.4 |
| 20260506174351 | 68 | 8 | 4.0 | 4.0 | 0.00 | 0.00 | 0.00 | 83 | 1013.1 |
| 20260506173848 | 68 | 359 | 6.0 | 7.0 | 0.00 | 0.00 | 0.00 | 84 | 1013.1 |
| 20260506173345 | 67 | 76 | 2.0 | 7.0 | 0.00 | 0.00 | 0.00 | 84 | 1013.4 |
| 20260506172842 | 66 | 32 | 4.0 | 6.0 | 0.00 | 0.00 | 0.00 | 85 | 1013.6 |
| 20260506172338 | 67 | 25 | 3.0 | 4.0 | 0.00 | 0.00 | 0.00 | 85 | 1013.7 |
| 20260506171836 | 65 | 323 | 3.0 | 3.0 | 0.00 | 0.00 | 0.00 | 87 | 1013.4 |
| 20260506171333 | 66 | 26 | 2.0 | 3.0 | 0.00 | 0.00 | 0.00 | 86 | 1013.5 |
| 20260506170831 | 65 | 33 | 2.0 | 6.0 | 0.00 | 0.00 | 0.00 | 88 | 1013.6 |
| 20260506170326 | 64 | 27 | 8.0 | 13.0 | 0.00 | 0.00 | 0.00 | 88 | 1013.6 |
| 20260506165825 | 63 | 43 | 4.0 | 6.0 | 0.00 | 0.00 | 0.00 | 89 | 1013.7 |
| 20260506165323 | 64 | 45 | 5.0 | 6.0 | 0.00 | 0.00 | 0.00 | 89 | 1013.9 |
| 20260506164814 | 63 | 44 | 1.0 | 3.0 | 0.00 | 0.00 | 0.00 | 90 | 1014.0 |
| 20260506164310 | 63 | 25 | 4.0 | 8.0 | 0.00 | 0.00 | 0.00 | 89 | 1014.3 |
| 20260506163808 | 63 | 7 | 6.0 | 9.0 | 0.00 | 0.00 | 0.00 | 89 | 1014.7 |
| 20260506163302 | 63 | 351 | 2.0 | 2.0 | 0.00 | 0.00 | 0.00 | 90 | 1014.4 |
| 20260506162758 | 62 | 21 | 1.0 | 3.0 | 0.00 | 0.00 | 0.00 | 92 | 1014.4 |
| 20260506162256 | 61 | 56 | 1.0 | 2.0 | 0.00 | 0.00 | 0.00 | 93 | 1014.8 |
| 20260506161753 | 61 | 25 | 7.0 | 10.0 | 0.00 | 0.00 | 0.00 | 94 | 1014.5 |
| 20260506161250 | 61 | 333 | 5.0 | 16.0 | 0.00 | 0.00 | 0.00 | 95 | 1015.1 |
| 20260506160747 | 61 | 332 | 9.0 | 13.0 | 0.00 | 0.00 | 0.00 | 96 | 1015.5 |
| 20260506160244 | 61 | 331 | 8.0 | 9.0 | 0.00 | 0.00 | 0.00 | 96 | 1015.8 |
| 20260506155743 | 62 | 36 | 6.0 | 11.0 | 0.00 | 0.00 | 0.00 | 95 | 1015.2 |
| 20260506155239 | 62 | 359 | 3.0 | 6.0 | 0.00 | 0.00 | 0.00 | 95 | 1015.3 |
| 20260506153347 | 64 | 321 | 9.0 | 10.0 | 0.00 | 0.00 | 0.00 | 94 | 1014.9 |
| 20260506152844 | 65 | 327 | 9.0 | 11.0 | 0.00 | 0.00 | 0.00 | 94 | 1014.8 |
| 20260506152341 | 65 | 10 | 7.0 | 9.0 | 0.00 | 0.00 | 0.00 | 94 | 1014.5 |
| 20260506151839 | 65 | 319 | 7.0 | 11.0 | 0.00 | 0.00 | 0.00 | 94 | 1014.2 |
| 20260506151336 | 66 | 347 | 7.0 | 11.0 | 0.00 | 0.00 | 0.00 | 93 | 1013.9 |
| 20260506150833 | 66 | 344 | 8.0 | 10.0 | 0.00 | 0.00 | 0.00 | 93 | 1013.9 |
| 20260506150330 | 66 | 294 | 15.0 | 21.0 | 0.00 | 0.00 | 0.00 | 93 | 1013.7 |
| 20260506145827 | 67 | 25 | 6.0 | 8.0 | 0.00 | 0.00 | 0.00 | 92 | 1013.4 |
| 20260506145323 | 68 | 27 | 8.0 | 15.0 | 0.00 | 0.00 | 0.00 | 91 | 1013.1 |
| 20260506144821 | 71 | 322 | 7.0 | 10.0 | 0.00 | 0.00 | 0.00 | 90 | 1012.5 |
| 20260506144317 | 77 | 16 | 7.0 | 13.0 | 0.00 | 0.00 | 0.00 | 86 | 1012.4 |
| 20260506143815 | 77 | 157 | 1.0 | 1.0 | 0.00 | 0.00 | 0.00 | 89 | 1012.2 |
| 20260506104524 | 75 | 158 | 2.0 | 2.0 | 0.00 | 0.00 | 0.00 | 94 | 1010.6 |
| 20260506104016 | 75 | 158 | 2.0 | 2.0 | 0.00 | 0.00 | 0.00 | 94 | 1010.6 |
| 20260506103513 | 75 | 163 | 3.0 | 3.0 | 0.00 | 0.00 | 0.00 | 94 | 1010.6 |
| 20260506072906 | 75 | 178 | 3.0 | 4.0 | 0.00 | 0.00 | 0.00 | 92 | 1009.8 |
| 20260506072403 | 75 | 178 | 3.0 | 4.0 | 0.00 | 0.00 | 0.00 | 92 | 1009.8 |
| 20260506071900 | 75 | 178 | 3.0 | 4.0 | 0.00 | 0.00 | 0.00 | 92 | 1009.8 |
| 20260506062411 | 75 | 210 | 6.0 | 15.0 | 0.00 | 0.00 | 0.00 | 92 | 1009.8 |
| 20260506061906 | 75 | 135 | 11.0 | 15.0 | 0.00 | 0.00 | 0.00 | 92 | 1009.8 |
| 20260506061403 | 75 | 190 | 5.0 | 8.0 | 0.00 | 0.00 | 0.00 | 92 | 1009.6 |
| 20260506060901 | 75 | 189 | 6.0 | 9.0 | 0.00 | 0.00 | 0.00 | 92 | 1009.6 |
| 20260506060359 | 75 | 191 | 9.0 | 11.0 | 0.00 | 0.00 | 0.00 | 92 | 1009.7 |
| 20260506051331 | 76 | 173 | 8.0 | 10.0 | 0.00 | 0.00 | 0.00 | 91 | 1010.0 |
| 20260506050828 | 76 | 146 | 5.0 | 7.0 | 0.00 | 0.00 | 0.00 | 91 | 1009.9 |
| 20260506050325 | 76 | 56 | 6.0 | 10.0 | 0.00 | 0.00 | 0.00 | 91 | 1009.9 |
| 20260506044816 | 76 | 193 | 6.0 | 8.0 | 0.00 | 0.00 | 0.00 | 92 | 1009.8 |
| 20260506044314 | 76 | 140 | 4.0 | 7.0 | 0.00 | 0.00 | 0.00 | 92 | 1009.8 |
| 20260506043810 | 76 | 157 | 6.0 | 11.0 | 0.00 | 0.00 | 0.00 | 92 | 1009.9 |
| 20260506043308 | 76 | 148 | 7.0 | 9.0 | 0.00 | 0.00 | 0.00 | 92 | 1009.8 |
| 20260506042806 | 76 | 157 | 4.0 | 4.0 | 0.00 | 0.00 | 0.00 | 91 | 1009.8 |
| 20260506042305 | 76 | 127 | 5.0 | 6.0 | 0.00 | 0.00 | 0.00 | 91 | 1009.8 |
| 20260506041803 | 76 | 115 | 7.0 | 9.0 | 0.00 | 0.00 | 0.00 | 91 | 1009.8 |
| 20260506041259 | 76 | 206 | 5.0 | 7.0 | 0.00 | 0.00 | 0.00 | 91 | 1009.7 |
| 20260506040757 | 76 | 160 | 4.0 | 6.0 | 0.00 | 0.00 | 0.00 | 91 | 1009.7 |
| 20260506040254 | 76 | 154 | 3.0 | 4.0 | 0.00 | 0.00 | 0.00 | 90 | 1009.7 |
| 20260506035751 | 77 | 138 | 5.0 | 6.0 | 0.00 | 0.00 | 0.00 | 90 | 1009.6 |
| 20260506035248 | 77 | 196 | 7.0 | 10.0 | 0.00 | 0.00 | 0.00 | 89 | 1009.4 |
| 20260506034744 | 77 | 123 | 5.0 | 7.0 | 0.00 | 0.00 | 0.00 | 89 | 1009.5 |
| 20260506034242 | 77 | 131 | 9.0 | 13.0 | 0.00 | 0.00 | 0.00 | 89 | 1009.4 |
| 20260506033739 | 77 | 149 | 6.0 | 8.0 | 0.00 | 0.00 | 0.00 | 89 | 1009.4 |
| 20260506033236 | 77 | 199 | 4.0 | 6.0 | 0.00 | 0.00 | 0.00 | 89 | 1009.4 |
| 20260506032733 | 77 | 150 | 5.0 | 6.0 | 0.00 | 0.00 | 0.00 | 89 | 1009.4 |
| 20260506032229 | 77 | 157 | 4.0 | 6.0 | 0.00 | 0.00 | 0.00 | 89 | 1009.3 |
| 20260506031726 | 77 | 107 | 6.0 | 9.0 | 0.00 | 0.00 | 0.00 | 88 | 1009.1 |
| 20260506031224 | 77 | 94 | 5.0 | 7.0 | 0.00 | 0.00 | 0.00 | 88 | 1009.3 |
| 20260506030722 | 77 | 128 | 2.0 | 2.0 | 0.00 | 0.00 | 0.00 | 88 | 1009.2 |
| 20260506030219 | 77 | 112 | 7.0 | 9.0 | 0.00 | 0.00 | 0.00 | 88 | 1008.9 |
| 20260506025716 | 78 | 132 | 10.0 | 13.0 | 0.00 | 0.00 | 0.00 | 87 | 1009.1 |
| 20260506025212 | 78 | 172 | 5.0 | 6.0 | 0.00 | 0.00 | 0.00 | 87 | 1008.9 |
| 20260506024709 | 78 | 83 | 3.0 | 4.0 | 0.00 | 0.00 | 0.00 | 86 | 1008.9 |
| 20260506024205 | 78 | 138 | 3.0 | 4.0 | 0.00 | 0.00 | 0.00 | 86 | 1008.9 |
| 20260506023702 | 78 | 130 | 2.0 | 3.0 | 0.00 | 0.00 | 0.00 | 85 | 1008.7 |
| 20260506023200 | 79 | 151 | 4.0 | 7.0 | 0.00 | 0.00 | 0.00 | 84 | 1008.5 |
| 20260506022656 | 79 | 188 | 4.0 | 6.0 | 0.00 | 0.00 | 0.00 | 83 | 1008.4 |
| 20260506022154 | 79 | 95 | 2.0 | 3.0 | 0.00 | 0.00 | 0.00 | 83 | 1008.2 |
| 20260506021652 | 79 | 186 | 3.0 | 3.0 | 0.00 | 0.00 | 0.00 | 83 | 1008.2 |
| 20260506021148 | 79 | 117 | 1.0 | 1.0 | 0.00 | 0.00 | 0.00 | 83 | 1008.3 |
| 20260506020640 | 79 | 146 | 6.0 | 7.0 | 0.00 | 0.00 | 0.00 | 82 | 1008.1 |
| 20260506020137 | 79 | 133 | 3.0 | 6.0 | 0.00 | 0.00 | 0.00 | 82 | 1007.9 |
| 20260506015635 | 80 | 117 | 4.0 | 6.0 | 0.00 | 0.00 | 0.00 | 82 | 1007.9 |
| 20260506015132 | 80 | 126 | 4.0 | 6.0 | 0.00 | 0.00 | 0.00 | 82 | 1007.8 |
| 20260506014630 | 80 | 80 | 4.0 | 4.0 | 0.00 | 0.00 | 0.00 | 82 | 1007.8 |
| 20260506014125 | 80 | 134 | 2.0 | 3.0 | 0.00 | 0.00 | 0.00 | 82 | 1007.8 |
| 20260506013623 | 80 | 98 | 5.0 | 7.0 | 0.00 | 0.00 | 0.00 | 81 | 1007.7 |
| 20260506013119 | 80 | 162 | 2.0 | 2.0 | 0.00 | 0.00 | 0.00 | 81 | 1007.8 |
| 20260506012615 | 80 | 106 | 1.0 | 2.0 | 0.00 | 0.00 | 0.00 | 80 | 1007.8 |
| 20260506012112 | 80 | 163 | 2.0 | 3.0 | 0.00 | 0.00 | 0.00 | 80 | 1007.7 |
| 20260506011610 | 80 | 135 | 4.0 | 4.0 | 0.00 | 0.00 | 0.00 | 80 | 1007.6 |
| 20260506011106 | 81 | 175 | 4.0 | 6.0 | 0.00 | 0.00 | 0.00 | 79 | 1007.7 |
| 20260506010600 | 81 | 97 | 3.0 | 4.0 | 0.00 | 0.00 | 0.00 | 79 | 1007.9 |
| 20260506010056 | 81 | 122 | 4.0 | 6.0 | 0.00 | 0.00 | 0.00 | 79 | 1007.6 |
| 20260506005554 | 81 | 111 | 3.0 | 4.0 | 0.00 | 0.00 | 0.00 | 79 | 1007.8 |
| 20260506005049 | 81 | 128 | 6.0 | 7.0 | 0.00 | 0.00 | 0.00 | 78 | 1007.6 |
| 20260506004547 | 81 | 159 | 4.0 | 7.0 | 0.00 | 0.00 | 0.00 | 78 | 1007.5 |
| 20260506004043 | 82 | 129 | 4.0 | 4.0 | 0.00 | 0.00 | 0.00 | 78 | 1007.6 |
| 20260506003540 | 82 | 140 | 3.0 | 4.0 | 0.00 | 0.00 | 0.00 | 77 | 1007.7 |
| 20260506003036 | 82 | 164 | 4.0 | 7.0 | 0.00 | 0.00 | 0.00 | 77 | 1007.6 |
| 20260506002532 | 82 | 145 | 3.0 | 4.0 | 0.00 | 0.00 | 0.00 | 77 | 1007.7 |
| 20260506002028 | 82 | 167 | 9.0 | 10.0 | 0.00 | 0.00 | 0.00 | 77 | 1007.6 |
| 20260506001525 | 82 | 128 | 4.0 | 6.0 | 0.00 | 0.00 | 0.00 | 77 | 1007.6 |
| 20260506001022 | 82 | 125 | 3.0 | 3.0 | 0.00 | 0.00 | 0.00 | 77 | 1007.8 |
| 20260506000520 | 82 | 161 | 6.0 | 8.0 | 0.00 | 0.00 | 0.00 | 76 | 1007.7 |
| 20260506000017 | 82 | 159 | 7.0 | 9.0 | 0.00 | 0.00 | 0.00 | 76 | 1007.5 |
| 20260505235515 | 82 | 168 | 7.0 | 8.0 | 0.00 | 0.00 | 0.00 | 75 | 1007.7 |
| 20260505235011 | 82 | 182 | 4.0 | 6.0 | 0.00 | 0.00 | 0.00 | 76 | 1007.5 |
| 20260505234508 | 82 | 188 | 6.0 | 9.0 | 0.00 | 0.00 | 0.00 | 76 | 1007.6 |
| 20260505234005 | 82 | 170 | 6.0 | 7.0 | 0.00 | 0.00 | 0.00 | 75 | 1007.3 |
| 20260505233503 | 82 | 125 | 5.0 | 8.0 | 0.00 | 0.00 | 0.00 | 76 | 1007.3 |